Regional Weather Roundup
Issued by NWS Jackson, KY

Home | Current Version | Previous Version | Graphics & Text | Print | Product List | Glossary On
Versions: 1 2 3 4 5 6 7 8 9 10 11 12 13 14 15 16 17 18 19 20 21 22 23 24 25 26 27 28 29 30 31 32 33 34 35 36 37 38 39 40 41 42 43 44 45 46 47 48 49 50
000
ASUS43 KJKL 251019
RWRJKL

EAST KENTUCKY HOURLY WEATHER ROUNDUP
NATIONAL WEATHER SERVICE JACKSON KY
500 AM EST THU DEC 25 2014

NOTE: "FAIR" INDICATES FEW OR NO CLOUDS BELOW 12,000 FEET WITH
NO SIGNIFICANT WEATHER AND/OR OBSTRUCTIONS TO VISIBILITY.

* THESE REPORTS ARE NOT UNDER NWS QUALITY CONTROL AND MAY NOT
  REPORT WEATHER SUCH AS PRECIPITATION AND FOG.

KYZ079-080-083-085-087-088-110-112-115-119-120-251100
...EASTERN KENTUCKY...

CITY           SKY/WX    TMP DP  RH WIND       PRES   REMARKS
JACKSON        CLOUDY    39  32  76 VRB5      29.92R
LONDON         CLOUDY    40  32  73 SW6       29.96R
SOMERSET*      CLOUDY    37  32  81 W8        29.99R WCI  31
MONTICELLO*    CLOUDY    40  36  86 SW9       30.01R WCI  34
MIDDLESBORO*   CLOUDY    40  32  72 CALM      29.97R
HARLAN APT*    CLOUDY    37  34  87 W6        29.95R WCI  33
BLACK MTN*       N/A     28  28 100 W3          N/A
PIKEVILLE APT* CLOUDY    39  32  75 SW7G20    29.92R WCI  34
BIG SANDY*     CLOUDY    40  33  74 W12G18    29.91R WCI  34
MOREHEAD APT*  CLOUDY    39  34  81 VRB6G13   29.95R WCI  35
ASHLAND*       MOCLDY   N/A N/A N/A W14       29.87R
$$

KYZ035-036-041-042-044-050-067-078-099-251100
...CENTRAL KENTUCKY...

CITY           SKY/WX    TMP DP  RH WIND       PRES   REMARKS
MT STERLING*   CLOUDY    37  34  87 W10G22    29.95R WCI  30
FLEMING/MASON* CLOUDY    37  34  87 W14       29.92R WCI  29
DANVILLE*      DRIZZLE   36  34  93 W9G16     29.97R WCI  29
RICHMOND*      CLOUDY    37  34  87 W16G22    29.96R WCI  28
LEXINGTON      CLOUDY    38  34  85 W9        29.94R WCI  31
FRANKFORT      CLOUDY    38  33  82 SW9       29.93R WCI  31
$$

KYZ091>093-OHZ055-061-077-WVZ005-015-034-035-042-251100
...SOUTHERN OHIO/WEST VIRGINIA...

CITY           SKY/WX    TMP DP  RH WIND       PRES   REMARKS
COVINGTON      CLOUDY    38  31  76 W12       29.88R WCI  30
COLUMBUS       LGT RAIN  38  32  79 W18G25    29.80R WCI  28
DAYTON         CLOUDY    37  34  89 W17       29.83R WCI  27
WILMINGTON     CLOUDY    37  32  82 W18G25    29.84R WCI  27
HUNTINGTON     CLOUDY    41  34  76 SW13      29.88R
CHARLESTON     CLOUDY    42  35  76 SW13G20   29.88R
PINEVILLE*     CLOUDY    41  38  90 MISG      29.92R
BECKLEY        CLOUDY    37  33  85 W8        29.84R WCI  31
BLUEFIELD      LGT RAIN  38  32  79 W17G37    29.83R WCI  28
$$

VAZ002-007-008-TNZ017-027-036-066-071-251100
...SOUTHWEST VIRGINIA/EAST TENNESSEE...

CITY           SKY/WX    TMP DP  RH WIND       PRES   REMARKS
WISE*          CLOUDY    36  32  87 W8        29.90R WCI  29
JONESVILLE*    PTSUNNY   39  32  75 W6        29.97R WCI  35
ABINGDON*      CLOUDY    41  35  79 NW10G20   29.90R
BRISTOL        CLOUDY    41  34  76 W12G21    29.93R
KNOXVILLE      CLOUDY    40  34  79 SW10      30.00R WCI  33
OAK RIDGE      MOCLDY    41  36  82 SW3       30.01R
CROSSVILLE     CLOUDY    37  33  85 W8        29.98R WCI  31
NASHVILLE      CLOUDY    41  34  75 W6        30.05R
$$

...KEY TO REMARKS...
VSB - VISIBILITY IN MILES
WCI - WIND CHILL INDEX
HX  - HEAT INDEX

$$



USA.gov is the U.S. government's official web portal to all federal, state and local government web resources and services.